Location: Federhof
(49.1604°N, 11.3008°E)
Time: 00:46:24
(UTC+00:00)

Daily predictions for brighter satellites

Satellite Brightness Start Highest point End
(mag) Time Altitude Azimuth Time Altitude Azimuth Time Altitude Azimuth
Cosmos 1980 Rocket 4.5 01:10:31 19° NNE 01:10:31 19° NNE 01:12:07 10° NNE
ATLAS 3B R/B 4.4 01:11:14 24° N 01:12:03 24° NNE 01:17:25 10° ENE
CENTAUR R/B 4.4 01:23:41 25° NNW 01:26:40 32° NNE 01:33:54 10° E
Resurs 1-4 Rocket 4.5 01:25:25 10° N 01:26:36 17° N 01:26:36 17° N
Lacrosse 4 Rocket 4.5 01:56:09 11° NNE 01:56:09 11° NNE 01:56:22 10° NNE
CZ-2D R/B 4.3 01:53:42 10° N 01:54:53 17° N 01:54:53 17° N
SL-16 R/B 3.4 02:02:36 38° NNE 02:02:36 38° NNE 02:06:03 10° NNE
ADEOS II 3.6 01:59:21 10° NNE 02:02:01 31° NNE 02:02:01 31° NNE
USA 267 3.3 02:05:48 10° ENE 02:11:54 72° ESE 02:11:54 72° ESE
BREEZE-M DEB (TANK) 4.5 02:14:51 31° ESE 02:14:51 31° ESE 02:16:45 10° E
Cosmos 2219 Rocket 4.3 02:12:09 15° SE 02:14:52 21° E 02:18:55 10° NE
ARIANE 5 R/B 4.0 02:17:27 10° NNE 02:19:49 28° N 02:19:49 28° N
COSMOS 2455 3.6 02:27:14 43° SE 02:28:06 46° ESE 02:33:50 10° NE
COSMOS 2428 4.5 02:25:19 18° SE 02:28:16 27° ESE 02:32:56 10° NE
Cosmos 2322 Rocket 2.9 02:34:29 45° N 02:34:29 45° N 02:38:37 10° NNE
NOSS 3-1 (A) 4.2 02:38:09 40° NNW 02:38:09 40° NNW 02:44:26 10° NE
Meteor 1-23 Rocket 4.3 02:40:22 69° N 02:40:22 69° N 02:45:15 10° NNE
IDEFIX/ARIANE 42P 3.5 02:36:31 10° NNE 02:41:34 45° E 02:44:01 27° SSE
Cosmos 2360 Rocket 2.1 02:45:05 82° NNE 02:45:05 82° NNE 02:50:30 10° NNE
ATLAS 5 CENTAUR R/B 4.2 02:43:37 22° NNW 02:45:35 28° NNE 02:55:09 10° ENE
USA 234 3.1 02:41:12 10° SE 02:47:41 64° SW 02:47:41 64° SW
Cosmos 1980 Rocket 4.0 02:52:18 19° NNW 02:52:18 19° NNW 02:55:27 10° N
Meteor 2-21 4.3 02:52:08 69° SW 02:52:52 81° W 02:59:07 10° N
Cosmos 1992 Rocket 4.0 02:51:47 10° NNW 02:57:02 80° ENE 03:02:14 10° SSE
Cosmos 1066 Rocket 3.9 02:57:47 81° WSW 02:57:57 83° W 03:03:30 10° N
Cosmos 1844 Rocket 4.3 03:07:01 20° S 03:07:01 20° S 03:08:37 10° S
ATLAS 3B R/B 3.4 02:58:31 13° NW 03:04:21 49° NE 03:10:54 10° ESE
Cosmos 2251 Rocket 3.6 03:04:48 49° S 03:06:14 77° ESE 03:11:39 10° NNE
Aureole 1 Rocket 4.4 03:00:49 13° S 03:06:45 54° ESE 03:11:48 10° NNE
Resurs 1-4 Rocket 4.3 03:07:01 10° NNW 03:07:40 12° NNW 03:07:40 12° NNW
Spot 2 4.0 03:05:53 10° NNE 03:09:37 72° NE 03:09:37 72° NE
Cosmos 2098 Rocket 4.3 03:09:04 40° SW 03:11:52 65° WNW 03:19:16 10° N
Meteor 1-22 Rocket 3.9 03:07:39 10° NNW 03:13:06 84° W 03:18:23 10° S
Cosmos 1709 Rocket 3.9 03:09:43 23° S 03:13:52 87° W 03:20:15 10° N
MSX 4.2 03:12:02 10° NNE 03:17:44 62° ESE 03:23:23 10° S
CENTAUR R/B 3.5 03:11:06 10° NW 03:18:51 65° NE 03:27:24 10° ESE
Cosmos 2278 Rocket 2.7 03:14:32 10° NNW 03:20:11 60° ENE 03:25:48 10° SE
Cosmos 2333 Rocket 2.5 03:17:32 22° S 03:21:10 65° ESE 03:26:49 10° NNE
Cosmos 44 4.0 03:18:49 21° NNW 03:21:26 45° NE 03:25:35 10° ESE
NOSS 2-2 (C) 4.0 03:21:24 39° SSE 03:22:11 46° SE 03:26:11 10° NE
ATLAS 2AS CENTAUR R/B 3.9 03:14:59 10° S 03:22:32 48° ESE 03:30:09 10° NE
Cosmos 1844 3.9 03:23:59 48° WSW 03:24:05 48° WSW 03:29:36 10° S
USA 238 DEB 3.7 03:19:19 19° NW 03:24:41 70° SW 03:32:02 10° SSE
USA 238 3.7 03:19:24 19° NW 03:24:47 71° SW 03:32:07 10° SSE
Cosmos 1975 Rocket 4.1 03:32:11 30° NW 03:32:11 30° NW 03:35:05 10° N
Lacrosse 4 Rocket 3.7 03:32:28 13° NNW 03:32:28 13° NNW 03:33:48 10° N
Cosmos 1953 4.0 03:30:52 10° N 03:34:36 34° ENE 03:38:18 10° SE
Gblst 52 Del rocket 4.3 03:33:03 38° WNW 03:35:08 69° N 03:40:55 10° E
ADEOS 3.5 03:30:01 10° N 03:35:14 70° WNW 03:38:16 25° SSW
Cosmos 2333 4.1 03:34:26 34° SW 03:36:57 73° WNW 03:42:37 10° NNE
Cosmos 1758 3.6 03:36:44 10° N 03:40:44 67° ENE 03:44:43 10° SSE
COSMO-SKYMED 1 4.2 03:38:12 10° SE 03:42:11 36° ENE 03:46:10 10° N
Okean 2 4.0 03:43:41 37° NW 03:43:41 37° NW 03:46:58 10° N
ADEOS II 3.7 03:40:11 10° NNW 03:42:57 18° NW 03:42:57 18° NW
BREEZE-M R/B 4.1 03:42:48 35° WSW 03:45:11 82° SSE 03:55:35 10° ENE
SL-16 R/B 3.6 03:44:29 21° NW 03:45:16 22° NW 03:49:35 10° N
Cosmos 1378 3.2 03:46:03 53° W 03:46:17 54° WNW 03:49:59 10° N
Cosmos 2322 3.9 03:44:04 33° WSW 03:46:26 54° NW 03:52:04 10° NNE
Cosmos 2074 Rocket 4.2 03:43:33 10° S 03:49:46 75° E 03:56:00 10° NNE
NOSS 3-2 (A) 4.1 03:44:09 10° NW 03:51:28 60° WSW 03:59:39 10° SSE
Cosmos 2181 Rocket 4.1 03:46:12 10° NNW 03:52:23 53° W 03:58:27 10° SSW
H-2A R/B 2.4 03:49:13 10° N 03:53:17 65° WNW 03:56:28 17° SSW
Okean O Rocket 4.4 03:50:47 10° NE 03:54:10 21° E 03:57:29 10° SE
CZ-4B R/B 4.2 03:50:48 10° NNE 03:54:40 67° ESE 03:58:42 10° S
USA 32 4.0 03:49:30 10° S 03:54:44 87° W 04:00:02 10° N
USA 267 3.6 03:48:55 10° ENE 03:55:16 55° NNW 03:59:15 24° W
COSMOS 2441 4.3 03:52:21 10° N 03:57:16 70° WNW 04:02:07 10° SSW
Cosmos 2219 Rocket 2.1 03:53:56 17° SW 03:58:14 71° WNW 04:03:50 10° NNE
NOSS 2-2 (E) 3.2 03:56:51 35° WSW 03:58:21 71° NW 04:02:47 10° NE
GENESIS II 4.4 03:56:09 20° SSW 03:58:50 73° SE 04:02:57 10° NE
ARIANE 5 R/B 4.4 03:58:25 10° NNW 04:00:09 13° NW 04:00:09 13° NW
NOSS 0 Rocket 4.3 03:54:56 10° SSW 04:01:01 67° ESE 04:07:11 10° NE
SJ-6F 4.3 03:57:48 10° N 04:02:00 76° WNW 04:06:07 10° SSW
PSLV R/B 4.2 03:59:39 10° N 04:03:30 34° WNW 04:04:42 28° W
Cosmos 2237 Rocket 2.9 03:58:08 10° S 04:03:40 57° ESE 04:09:15 10° NE
Meteor 1-31 Rocket 2.6 04:04:26 10° NNE 04:08:16 85° WNW 04:12:04 10° SSW
Cosmos 2228 3.6 04:04:40 10° N 04:08:55 58° ENE 04:13:06 10° SSE
ERBS 3.5 04:06:24 13° SSW 04:09:04 38° SE 04:12:15 10° ENE
Cosmos 1025 Rocket 3.1 04:06:02 10° SSW 04:10:11 50° WNW 04:14:22 10° N
COSMOS 2428 2.8 04:07:23 14° SW 04:12:09 58° WNW 04:17:47 10° NNE
NOSS 3-2 (C) 4.1 04:06:00 10° NW 04:13:24 63° SW 04:21:38 10° SSE
COSMOS 2455 3.3 04:10:26 21° WSW 04:14:07 43° NW 04:19:53 10° NNE
Cosmos 489 Rocket 4.4 04:08:03 10° NNW 04:14:13 65° WSW 04:20:23 10° S
CZ-2C R/B 2.5 04:11:36 10° N 04:16:46 66° WNW 04:21:54 10° SSW
Cosmos 1470 2.9 04:13:17 10° NNW 04:17:07 49° W 04:20:53 10° S
Cosmos 2369 Rocket 4.3 04:13:23 10° N 04:17:48 23° NE 04:22:11 10° E
COBE Rocket 4.1 04:12:55 10° SSE 04:17:56 82° ENE 04:23:06 10° N
Cosmos 2322 Rocket 3.9 04:16:19 14° WNW 04:18:19 16° NW 04:21:45 10° N
Cosmos 1733 4.3 04:16:57 10° NW 04:20:02 23° W 04:23:05 10° SW
Cosmos 1980 3.8 04:14:25 10° SSW 04:20:04 79° ESE 04:25:45 10° NNE
Cosmos 921 Rocket 3.4 04:16:12 10° NW 04:20:12 37° WSW 04:24:07 10° S
Meteor PRIRODA 3.6 04:17:06 10° NNE 04:20:52 88° E 04:24:37 10° SSW
IDEFIX/ARIANE 42P 3.4 04:16:26 10° N 04:21:00 31° WNW 04:24:49 13° WSW
Cosmos 389 Rocket 2.3 04:18:31 10° S 04:21:57 89° E 04:25:24 10° NNE
Cosmos 1536 Rocket 4.1 04:18:25 11° SW 04:22:12 34° WNW 04:26:11 10° N
Cosmos 1842 4.2 04:21:09 18° WSW 04:23:13 28° WNW 04:26:40 10° N
Cosmos 1707 2.6 04:21:20 10° SSW 04:25:14 77° W 04:29:11 10° N
Cosmos 1484 Rocket 3.0 04:22:11 10° NNE 04:25:56 69° ESE 04:29:43 10° S
Cosmos 2360 Rocket 3.5 04:26:53 16° WNW 04:29:38 22° NW 04:33:56 10° N
SKYMED 2 3.5 04:25:45 10° S 04:30:06 79° WSW 04:34:28 10° NNW
USA 234 4.5 04:27:02 10° SSW 04:31:34 20° WSW 04:35:02 13° W
NOSS 3-4 (A) 3.7 04:26:30 10° SSW 04:32:30 74° SE 04:38:55 10° NE
NOSS 3-4 (C) 3.7 04:26:34 10° SSW 04:32:36 73° SE 04:39:02 10° NE
PAYLOAD A 4.4 04:31:38 10° N 04:36:01 37° WNW 04:40:30 10° SW
NOSS 2-2 (D) 3.8 04:33:18 15° WSW 04:36:11 44° NW 04:40:28 10° NE
GP-B 3.1 04:32:11 10° S 04:36:36 87° W 04:41:05 10° N
Cosmos 1140 Rocket 3.6 04:34:41 10° SSW 04:39:52 81° ESE 04:45:04 10° NNE
Cosmos 1892 Rocket 3.8 04:36:10 10° S 04:40:36 74° E 04:45:01 10° NNE
ALOS 3.0 04:37:04 10° NNE 04:41:42 59° E 04:46:18 10° S
Meteor 2-10 4.1 04:38:56 10° NNW 04:44:06 89° E 04:49:24 10° S
CZ-4B R/B 3.4 04:40:49 10° N 04:44:41 38° WNW 04:48:21 10° SW
Meteor 1-16 Rocket 4.0 04:43:58 10° NNW 04:49:15 68° W 04:54:33 10° S
Cosmos 614 Rocket 4.0 04:44:15 10° SW 04:49:25 62° WNW 04:54:37 10° NNE
Cosmos 2154 Rocket 4.0 04:43:22 10° SSW 04:49:32 69° WNW 04:55:45 10° N
Aureole 1 Rocket 4.5 04:45:56 10° WSW 04:51:24 30° WNW 04:55:46 10° N
Cosmos 1606 Rocket 3.8 04:48:41 10° NNW 04:52:47 43° W 04:56:52 10° SSW
Cosmos 1356 3.4 04:50:58 10° NNW 04:54:23 58° W 04:57:46 10° S
SL-16 R/B 3.1 04:49:05 10° S 04:54:35 56° ESE 05:00:08 10° NE
ATLAS 3B R/B 2.9 04:48:41 10° NW 04:55:07 51° WSW 05:01:41 10° SSE
Cosmos 44 Rocket 3.5 04:51:52 10° NW 04:56:39 73° NE 05:01:19 10° SE
Cosmos 2184 Rocket 4.5 04:54:09 10° SW 04:59:55 39° WNW 05:05:46 10° N
Okean 1-7 Rocket 3.6 04:55:34 10° SSW 04:59:59 71° W 05:04:30 10° N
Meteor 2-5 Rocket 4.3 04:55:12 10° S 05:00:55 68° E 05:06:47 10° NNE
NOAA 6 4.3 04:56:01 10° NNE 05:01:14 78° ESE 05:06:24 10° S
Cosmos 2297 3.7 04:55:36 10° NNW 05:01:22 76° WSW 05:07:06 10° SSE
Cosmos 44 4.0 04:58:43 10° WNW 05:02:25 27° WSW 05:06:04 10° S
Cosmos 1943 Rocket 3.3 04:58:17 10° NNW 05:03:44 45° NE 05:09:10 10° SE
Cosmos 2278 Rocket 3.2 04:59:16 10° NW 05:03:53 26° WSW 05:08:28 10° SSW
Cosmos 1726 2.1 05:00:37 10° NNW 05:04:14 59° W 05:07:50 10° S
Cosmos 1674 3.0 05:01:05 10° S 05:04:46 71° E 05:08:29 10° NNE
FENGYUN 3A 3.8 04:59:20 10° NNE 05:04:48 86° ESE 05:10:15 10° SSW
Helios 1A Rocket 2.9 05:01:04 10° N 05:05:13 71° WNW 05:09:21 10° SSW
Cosmos 2333 Rocket 3.2 05:01:04 10° WSW 05:05:55 28° NW 05:10:49 10° NNE
ASTEX 1 3.7 05:01:29 10° SSE 05:06:19 74° E 05:11:14 10° N
CENTAUR R/B 3.6 05:02:03 10° NW 05:09:34 45° WSW 05:17:38 10° S
